Berea, KY

12:28 AM EDT on July 30, 2016 (GMT -0400)
Richmond

Weather History for KI39 - March, 2014

Change the Weather History Date:

Saturday, March 22, 2014

  Actual Average (KLOZ) Record (KLOZ)
Temperature  
Mean Temperature 50 °F 49 °F  
Max Temperature 59 °F 61 °F 82 °F (2012)
Min Temperature 41 °F 38 °F 15 °F (1986)
Degree Days  
Heating Degree Days 14 16  
Month to date heating degree days 417  
Since 1 July heating degree days 3693  
Cooling Degree Days 0 0  
Month to date cooling degree days 0  
Year to date cooling degree days 0  
Moisture  
Dew Point 30 °F    
Average Humidity 41    
Maximum Humidity 66    
Minimum Humidity 31    
Precipitation  
Precipitation 0.00 in 0.13 in 1.37 in (1968)
Month to date precipitation 2.87  
Sea Level Pressure  
Sea Level Pressure 30.02 in    
Wind  
Wind Speed 8 mph (WNW)    
Max Wind Speed 14 mph    
Max Gust Speed 17 mph    
Visibility 10 miles    
Events      
T = Trace of Precipitation, MM = Missing Value Source: NWS Daily Summary

Daily Weather History Graph

Daily Weather History Graph

Search for Another Location

Airport or City:

Trip Planner

Search our weather history database for the weather conditions in past years. The results will help you decide how hot, cold, wet, or windy it might be!

Date:

Astronomy

Mar. 22, 2014 Rise Set
Actual Time 7:37 AM EDT 7:51 PM EDT
Civil Twilight 7:11 AM EDT 8:17 PM EDT
Nautical Twilight 6:41 AM EDT 8:47 PM EDT
Astronomical Twilight 6:10 AM EDT 9:19 PM EDT
Moon 1:04 AM EDT (3/22) 11:25 AM EDT (3/22)
Length of Visible Light 13h 05m
Length of Day
12h 13m
Waning Gibbous, 65% of the Moon is Illuminated
Mar 22
Waning Gibbous
Mar 23
Last Quarter
Mar 30
New
Apr 7
First Quarter
Apr 15
Full

Hourly Weather History & Observations

Time (EDT) Temp. Windchill Dew Point Humidity Pressure Visibility Wind Dir Wind Speed Gust Speed Precip Events Conditions
12:15 AM 55.4 °F - 26.6 °F 33% 29.93 in 10.0 mi SSW 9.2 mph - N/A   Clear
12:35 AM 55.4 °F - 26.6 °F 33% 29.93 in 10.0 mi SSW 9.2 mph - N/A   Clear
12:55 AM 55.4 °F - 26.6 °F 33% 29.93 in 10.0 mi SSW 9.2 mph - N/A   Clear
1:15 AM 55.4 °F - 26.6 °F 33% 29.92 in 10.0 mi SSW 10.4 mph - N/A   Clear
1:35 AM 55.4 °F - 26.6 °F 33% 29.92 in 10.0 mi SW 11.5 mph - N/A   Clear
1:55 AM 55.4 °F - 26.6 °F 33% 29.91 in 10.0 mi SSW 12.7 mph - N/A   Clear
2:15 AM 55.4 °F - 26.6 °F 33% 29.92 in 10.0 mi SW 9.2 mph - N/A   Clear
2:35 AM 55.4 °F - 26.6 °F 33% 29.92 in 10.0 mi SW 13.8 mph 17.3 mph N/A   Clear
2:55 AM 55.4 °F - 26.6 °F 33% 29.91 in 10.0 mi SW 11.5 mph - N/A   Clear
3:15 AM 55.4 °F - 26.6 °F 33% 29.91 in 10.0 mi SSW 10.4 mph - N/A   Clear
3:35 AM 53.6 °F - 26.6 °F 35% 29.91 in 10.0 mi SW 11.5 mph - N/A   Clear
3:55 AM 53.6 °F - 26.6 °F 35% 29.90 in 10.0 mi SW 11.5 mph 16.1 mph N/A   Clear
4:15 AM 53.6 °F - 26.6 °F 35% 29.90 in 10.0 mi SW 10.4 mph - N/A   Clear
4:35 AM 53.6 °F - 26.6 °F 35% 29.90 in 10.0 mi SW 11.5 mph - N/A   Clear
4:55 AM 53.6 °F - 26.6 °F 35% 29.90 in 10.0 mi SW 11.5 mph - N/A   Clear
5:15 AM 53.6 °F - 26.6 °F 35% 29.90 in 10.0 mi SW 10.4 mph - N/A   Scattered Clouds
5:35 AM 55.4 °F - 28.4 °F 36% 29.93 in 10.0 mi West 10.4 mph - N/A   Overcast
5:55 AM 55.4 °F - 28.4 °F 36% 29.93 in 10.0 mi WSW 11.5 mph - N/A   Overcast
6:15 AM 55.4 °F - 28.4 °F 36% 29.94 in 10.0 mi WSW 5.8 mph - N/A   Overcast
6:35 AM 53.6 °F - 30.2 °F 41% 29.95 in 10.0 mi West 8.1 mph - N/A   Overcast
6:55 AM 53.6 °F - 30.2 °F 41% 29.96 in 10.0 mi West 9.2 mph - N/A   Overcast
7:15 AM 53.6 °F - 32.0 °F 44% 29.97 in 10.0 mi WNW 11.5 mph 17.3 mph N/A   Mostly Cloudy
7:35 AM 51.8 °F - 32.0 °F 47% 29.98 in 10.0 mi WNW 6.9 mph - N/A   Scattered Clouds
7:55 AM 50.0 °F - 32.0 °F 50% 29.99 in 10.0 mi West 5.8 mph - N/A   Clear
8:15 AM 50.0 °F - 32.0 °F 50% 30.00 in 10.0 mi WNW 6.9 mph - N/A   Scattered Clouds
8:35 AM 50.0 °F - 32.0 °F 50% 30.01 in 10.0 mi NW 5.8 mph - N/A   Overcast
8:55 AM 50.0 °F - 32.0 °F 50% 30.02 in 10.0 mi NW 4.6 mph - N/A   Overcast
9:15 AM 51.8 °F - 32.0 °F 47% 30.03 in 10.0 mi NNW 6.9 mph - N/A   Overcast
9:35 AM 51.8 °F - 30.2 °F 44% 30.03 in 10.0 mi NNW 6.9 mph - N/A   Overcast
9:55 AM 51.8 °F - 32.0 °F 47% 30.05 in 10.0 mi NNW 6.9 mph - N/A   Mostly Cloudy
10:15 AM 51.8 °F - 32.0 °F 47% 30.05 in 10.0 mi North 8.1 mph - N/A   Mostly Cloudy
10:35 AM 51.8 °F - 32.0 °F 47% 30.05 in 10.0 mi North 8.1 mph - N/A   Scattered Clouds
10:55 AM 51.8 °F - 32.0 °F 47% 30.06 in 10.0 mi NNW 5.8 mph - N/A   Clear
11:15 AM 51.8 °F - 32.0 °F 47% 30.06 in 10.0 mi North 5.8 mph - N/A   Clear
11:35 AM 51.8 °F - 32.0 °F 47% 30.07 in 10.0 mi NNW 3.5 mph - N/A   Clear
11:55 AM 53.6 °F - 32.0 °F 44% 30.07 in 10.0 mi North 4.6 mph - N/A   Clear
12:15 PM 53.6 °F - 32.0 °F 44% 30.07 in 10.0 mi NNW 4.6 mph - N/A   Clear
12:35 PM 53.6 °F - 32.0 °F 44% 30.08 in 10.0 mi North 3.5 mph - N/A   Clear
12:55 PM 53.6 °F - 32.0 °F 44% 30.08 in 10.0 mi Calm Calm - N/A   Clear
1:15 PM 55.4 °F - 32.0 °F 41% 30.08 in 10.0 mi North 5.8 mph - N/A   Clear
1:35 PM 55.4 °F - 32.0 °F 41% 30.08 in 10.0 mi WNW 4.6 mph - N/A   Clear
1:55 PM 55.4 °F - 30.2 °F 38% 30.07 in 10.0 mi NW 6.9 mph - N/A   Clear
2:15 PM 55.4 °F - 28.4 °F 36% 30.07 in 10.0 mi NW 8.1 mph - N/A   Clear
2:35 PM 57.2 °F - 30.2 °F 36% 30.06 in 10.0 mi NW 5.8 mph - N/A   Clear
2:55 PM 57.2 °F - 28.4 °F 33% 30.06 in 10.0 mi NW 8.1 mph - N/A   Clear
3:15 PM 57.2 °F - 28.4 °F 33% 30.05 in 10.0 mi West 5.8 mph - N/A   Clear
3:35 PM 57.2 °F - 30.2 °F 36% 30.04 in 10.0 mi WNW 8.1 mph - N/A   Clear
3:55 PM 59.0 °F - 30.2 °F 34% 30.04 in 10.0 mi NNE 4.6 mph - N/A   Clear
4:15 PM 59.0 °F - 30.2 °F 34% 30.04 in 10.0 mi WNW 5.8 mph - N/A   Clear
4:35 PM 59.0 °F - 30.2 °F 34% 30.03 in 10.0 mi NNW 5.8 mph - N/A   Clear
4:55 PM 59.0 °F - 32.0 °F 36% 30.04 in 10.0 mi West 3.5 mph - N/A   Clear
5:15 PM 59.0 °F - 30.2 °F 34% 30.04 in 10.0 mi NW 9.2 mph - N/A   Clear
5:35 PM 59.0 °F - 30.2 °F 34% 30.05 in 10.0 mi NW 9.2 mph - N/A   Clear
5:55 PM 59.0 °F - 28.4 °F 31% 30.05 in 10.0 mi NW 6.9 mph - N/A   Clear
6:15 PM 59.0 °F - 28.4 °F 31% 30.05 in 10.0 mi Calm Calm - N/A   Clear
6:35 PM 57.2 °F - 28.4 °F 33% 30.05 in 10.0 mi NNW 8.1 mph - N/A   Clear
6:55 PM 57.2 °F - 28.4 °F 33% 30.05 in 10.0 mi NW 5.8 mph - N/A   Clear
7:15 PM 55.4 °F - 28.4 °F 36% 30.06 in 10.0 mi NW 6.9 mph - N/A   Clear
7:35 PM 53.6 °F - 28.4 °F 38% 30.07 in 10.0 mi NW 6.9 mph - N/A   Clear
7:55 PM 51.8 °F - 28.4 °F 41% 30.07 in 10.0 mi NNW 6.9 mph - N/A   Clear
8:15 PM 51.8 °F - 28.4 °F 41% 30.08 in 10.0 mi NNW 5.8 mph - N/A   Clear
8:35 PM 51.8 °F - 26.6 °F 38% 30.08 in 10.0 mi NNW 4.6 mph - N/A   Clear
8:55 PM 50.0 °F - 28.4 °F 43% 30.08 in 10.0 mi NNW 4.6 mph - N/A   Clear
9:15 PM 48.2 °F - 30.2 °F 50% 30.09 in 10.0 mi NW 5.8 mph - N/A   Clear
9:35 PM 46.4 °F 43.5 °F 30.2 °F 53% 30.10 in 10.0 mi NNW 5.8 mph - N/A   Clear
9:55 PM 46.4 °F 44.3 °F 30.2 °F 53% 30.10 in 10.0 mi NNW 4.6 mph - N/A   Clear
10:15 PM 46.4 °F 44.3 °F 30.2 °F 53% 30.10 in 10.0 mi NNW 4.6 mph - N/A   Clear
10:35 PM 44.6 °F 39.7 °F 30.2 °F 57% 30.11 in 10.0 mi North 9.2 mph - N/A   Clear
10:55 PM 44.6 °F 40.7 °F 32.0 °F 61% 30.12 in 10.0 mi NNE 6.9 mph 16.1 mph N/A   Clear
11:15 PM 42.8 °F 37.0 °F 32.0 °F 66% 30.12 in 10.0 mi NNE 10.4 mph 16.1 mph N/A   Clear
11:35 PM 42.8 °F 37.0 °F 32.0 °F 66% 30.13 in 10.0 mi North 10.4 mph - N/A   Clear
11:55 PM 41.0 °F 37.1 °F 30.2 °F 65% 30.15 in 10.0 mi NNE 5.8 mph - N/A   Clear